Wind_Speed
28 28 29 29 28 29 29 29 29 28 28 28 28 27 25 25 25 25 25 26 26 26 27 28 29 30 30 30 31 31 31 31 31 31 30 29 29 29 29 28 27 27 26 26
29 30 31 31 31 31 31 30 30 30 29 28 29 29 27 27 26 26 27 27 27 28 28 29 30 30 31 31 31 31 32 32 32 32 31 31 31 31 30 29 28 27 27 28
30 30 31 32 31 32 33 32 32 32 32 31 31 31 30 29 29 28 29 30 29 29 30 30 31 32 32 32 33 33 34 33 33 33 34 33 32 31 30 30 30 30 30 30
32 33 33 32 32 32 33 33 33 33 33 34 33 32 32 32 31 31 31 31 31 30 30 31 32 32 33 33 34 35 36 35 34 34 34 34 33 33 32 32 32 31 31 31
34 35 35 34 34 33 34 35 35 35 34 34 34 33 34 33 33 32 33 32 32 32 32 32 32 33 33 33 34 36 36 35 34 34 35 35 35 34 34 34 34 33 32 32
37 36 36 35 36 35 35 37 36 35 35 35 35 35 36 34 33 33 34 34 33 33 33 33 33 34 34 33 34 34 35 35 35 35 35 36 35 35 36 35 34 33 33 34
37 37 37 37 36 36 37 38 36 36 36 36 36 37 36 34 33 34 34 33 33 33 33 33 34 34 34 34 34 33 33 35 36 37 37 36 36 37 36 35 35 35 35 36
36 37 38 38 38 38 39 39 37 37 37 37 37 37 36 35 35 34 34 34 33 34 34 34 35 35 35 35 35 34 35 35 36 38 39 38 37 37 37 37 37 37 37 36
37 38 39 38 38 38 38 39 38 38 37 37 37 37 36 35 35 35 34 35 35 35 36 36 36 36 36 36 36 36 37 37 37 38 39 38 38 38 39 39 39 38 38 37
36 36 37 38 38 37 37 38 38 38 37 37 37 36 36 35 35 35 36 35 35 35 35 36 36 37 37 37 37 37 37 37 37 38 38 38 38 39 39 39 40 40 39 40
36 37 37 37 37 37 37 37 37 37 37 36 36 36 36 36 36 37 37 37 36 36 36 37 37 37 36 37 36 37 37 37 37 37 37 38 38 39 40 40 40 39 39 39
36 37 37 36 36 37 36 36 36 36 36 36 36 36 36 36 37 38 38 38 38 38 38 37 36 37 37 36 36 37 37 38 38 38 38 39 39 39 40 40 40 39 38 38
36 36 36 35 35 35 35 35 34 34 35 35 36 36 36 36 37 38 38 38 38 38 39 38 38 37 37 37 37 38 38 37 37 37 38 39 39 39 39 39 39 38 37 37
33 33 33 32 32 33 33 33 32 32 33 33 33 33 33 34 35 35 36 36 37 37 37 37 37 37 37 37 36 35 35 35 36 37 37 37 37 37 37 37 37 36 36 36
30 30 30 30 30 31 32 32 32 32 32 33 32 32 31 31 31 31 31 31 32 32 33 34 35 36 36 35 35 34 34 34 35 35 36 36 36 36 35 35 35 35 35 36
28 28 28 28 28 29 30 31 31 31 32 32 31 31 30 30 30 29 29 29 29 30 30 31 33 33 33 33 33 33 32 32 33 34 34 34 35 35 35 34 34 34 34 35
26 26 26 26 26 27 27 28 29 29 29 29 29 28 28 28 28 27 27 28 28 29 29 29 29 30 30 30 31 31 31 31 31 31 32 33 33 33 33 33 33 33 34 34
23 23 24 24 24 25 25 26 27 27 26 26 26 26 26 27 27 27 27 27 28 28 27 27 27 27 27 26 27 28 29 30 30 31 31 31 30 29 30 30 30 31 32 32
19 20 20 21 22 23 23 24 25 25 25 26 26 25 26 26 26 26 26 27 27 27 26 27 27 26 25 25 26 26 27 28 29 29 29 28 28 28 28 28 29 29 30 30
16 17 18 18 19 20 20 22 23 23 24 24 25 25 25 25 25 25 26 26 27 26 26 26 26 26 25 25 25 26 27 27 28 27 27 27 27 27 27 27 27 27 27 28
14 15 16 16 16 17 19 20 21 21 22 23 23 23 24 24 25 25 25 25 25 24 24 24 24 25 25 25 25 25 26 26 26 26 27 27 27 27 27 26 26 26 26 26
11 12 13 14 16 17 17 17 18 19 20 21 21 21 21 21 22 22 22 23 22 22 22 23 23 24 24 24 24 24 25 25 25 25 26 26 26 26 26 26 26 26 26 26
10 11 12 13 13 14 15 16 17 17 18 18 18 19 19 20 20 21 21 21 21 21 21 21 22 22 23 24 24 24 24 24 24 25 25 25 25 25 25 25 25 25 26 26
10 10 11 12 13 13 14 14 15 15 16 16 16 17 18 18 19 19 20 20 21 21 20 21 21 22 23 24 24 24 24 24 24 25 25 25 26 26 25 25 25 26 26 25
9 10 11 11 11 11 11 12 12 13 13 14 15 15 16 16 17 18 19 20 20 21 21 21 21 22 22 23 23 23 23 23 24 24 24 25 25 25 25 25 26 25 25 25
9 9 8 9 9 10 10 10 11 11 12 12 13 14 15 16 16 17 18 19 19 20 20 20 21 21 21 21 22 22 22 23 24 24 23 23 23 23 24 24 25 25 25 26
9 9 9 9 9 9 10 10 10 11 12 12 13 13 14 15 16 16 17 18 19 20 21 21 22 22 21 22 22 22 22 22 23 23 23 22 23 23 24 24 25 24 25 25
Wind_Direction
250 250 252 254 254 254 253 253 255 258 260 260 262 260 260 260 260 260 259 257 258 258 258 261 262 261 259 261 262 263 264 265 263 264 266 266 267 269 272 274 276 275 274 276
256 255 255 255 255 255 255 256 257 258 260 261 262 260 259 260 261 262 260 259 259 258 259 261 262 262 261 262 261 262 264 264 263 263 264 265 267 270 271 272 275 274 275 277
257 258 258 258 257 256 257 257 257 259 260 262 263 262 261 260 260 260 261 260 259 260 260 259 261 261 262 262 261 261 262 262 263 262 264 265 267 269 272 273 274 274 274 275
259 259 260 261 259 258 258 257 258 259 260 261 262 262 260 260 260 260 261 260 259 260 260 260 261 262 263 264 262 261 261 260 260 261 263 265 268 271 273 272 271 271 272 274
260 261 262 261 261 259 259 260 259 260 260 261 262 262 259 258 259 260 260 260 260 260 260 261 262 262 263 264 263 261 260 260 260 262 264 266 268 270 272 272 270 269 271 274
260 261 262 262 262 262 262 261 259 259 260 261 261 260 260 259 258 258 258 259 260 259 260 261 261 262 263 265 265 262 259 261 263 264 264 264 265 267 269 270 269 270 271 272
261 262 263 261 262 262 262 262 262 261 261 261 261 261 261 261 259 258 257 258 258 258 259 261 262 262 264 266 266 264 262 262 262 262 262 264 265 266 267 268 269 270 271 272
262 262 261 263 263 261 262 263 263 263 263 263 262 261 262 261 259 257 256 256 257 258 260 262 263 263 265 266 266 265 264 263 263 263 263 263 265 266 267 269 270 271 272 272
262 261 262 263 263 263 263 262 262 263 263 263 262 261 262 261 258 255 255 256 257 259 261 262 263 264 265 266 266 266 264 264 265 264 263 264 265 266 268 269 271 271 272 274
261 261 261 261 262 262 262 262 262 262 262 261 260 260 260 260 257 256 256 257 258 259 261 262 262 264 265 267 267 267 265 264 264 263 263 264 266 268 270 272 271 272 273 273
262 261 261 261 261 262 262 261 261 260 259 259 259 258 259 258 257 257 257 257 259 260 261 262 263 264 265 266 266 265 264 264 264 265 264 265 267 268 269 272 273 274 274 273
262 262 262 262 261 260 260 259 259 259 258 258 258 257 257 257 256 257 257 258 259 260 261 262 263 264 265 265 264 264 264 265 265 265 267 267 269 269 270 271 272 273 273 273
263 262 262 262 261 260 259 258 257 257 257 257 258 258 258 257 256 257 257 258 259 260 261 262 263 264 265 266 265 265 266 265 265 266 266 268 269 270 270 270 271 272 273 273
263 262 261 260 259 258 258 258 257 256 256 256 256 257 257 256 256 258 258 259 260 261 262 263 263 263 264 265 265 265 266 266 265 265 267 267 268 269 269 270 270 270 271 272
264 262 261 260 259 257 256 256 256 256 257 256 255 257 258 258 258 259 260 262 263 263 264 264 264 265 265 266 267 267 266 266 267 267 268 270 270 269 269 269 270 270 271 272
264 263 262 259 258 257 257 256 256 257 256 256 257 256 257 258 258 259 261 262 263 263 265 265 264 265 265 266 267 268 268 268 269 270 271 272 271 270 270 270 270 270 270 270
262 261 259 258 257 256 256 256 256 256 255 255 256 255 255 256 258 259 260 260 261 262 265 265 265 265 266 267 267 268 269 269 270 273 275 274 273 273 272 271 271 270 270 269
262 259 257 256 256 255 254 255 256 257 257 257 256 254 254 255 257 258 258 259 261 262 264 265 265 266 267 268 268 269 269 270 272 275 274 274 274 274 273 272 271 271 270 270
263 260 258 258 256 253 253 253 255 255 255 256 255 256 256 256 257 258 258 259 261 263 265 265 265 266 267 267 268 269 271 272 273 274 273 272 272 273 275 274 273 272 270 269
262 257 256 256 256 254 254 255 256 256 255 255 255 254 254 256 257 258 259 260 262 264 265 264 264 264 266 266 269 271 272 272 272 273 272 271 272 274 276 275 275 274 272 271
265 260 256 256 256 257 258 259 258 257 256 255 256 256 256 257 259 261 262 262 262 263 264 265 265 266 266 267 270 271 272 272 272 272 271 271 272 274 276 275 276 277 276 273
271 266 263 260 259 260 261 260 259 258 256 256 256 256 255 256 259 261 262 261 261 263 264 265 266 267 267 270 273 272 273 273 273 272 271 272 273 274 275 275 276 277 276 275
279 272 269 269 268 265 264 262 259 256 254 253 253 255 255 256 258 260 261 261 261 263 265 266 266 267 268 270 272 273 273 274 274 273 272 273 274 276 277 277 277 278 278 276
292 287 280 278 272 269 270 266 261 258 255 253 254 255 256 258 260 261 261 260 259 261 263 266 268 270 270 271 272 272 272 274 274 274 275 276 276 277 278 277 276 278 278 278
301 299 293 288 280 276 273 267 261 258 255 254 255 257 259 261 263 264 263 262 261 262 264 266 269 272 272 271 271 272 274 275 276 277 276 277 278 278 278 279 278 277 278 279
307 305 299 295 288 279 275 270 265 263 265 267 266 264 264 265 266 268 268 267 265 264 265 267 271 274 274 273 273 275 277 277 277 277 277 278 278 278 278 280 280 280 280 281
311 306 302 299 294 285 281 275 271 270 271 272 273 274 273 271 270 270 270 268 267 268 269 269 272 273 274 275 277 278 278 278 278 278 278 278 279 280 279 280 280 281 281 281
Height
5833 5834 5835 5836 5838 5839 5840 5842 5844 5845 5846 5846 5846 5847 5848 5849 5850 5851 5851 5852 5853 5854 5854 5855 5855 5855 5856 5857 5857 5858 5858 5859 5859 5859 5859 5859 5859 5858 5858 5858 5857 5857 5856 5856
5824 5825 5826 5828 5829 5830 5832 5833 5835 5836 5837 5837 5837 5838 5840 5841 5842 5843 5843 5844 5845 5845 5846 5847 5847 5847 5848 5848 5848 5849 5849 5850 5850 5851 5851 5851 5851 5850 5850 5850 5849 5849 5848 5848
5816 5817 5817 5819 5821 5822 5823 5824 5826 5827 5829 5828 5829 5830 5831 5832 5833 5834 5835 5836 5836 5837 5837 5838 5838 5838 5839 5839 5839 5840 5840 5841 5841 5842 5842 5842 5842 5842 5842 5841 5841 5841 5841 5840
5807 5808 5808 5812 5811 5812 5813 5814 5816 5817 5818 5819 5820 5820 5821 5822 5824 5825 5826 5826 5827 5828 5828 5829 5829 5829 5829 5830 5830 5830 5831 5831 5832 5833 5833 5833 5833 5833 5833 5832 5832 5832 5832 5831
5797 5797 5798 5801 5801 5802 5803 5804 5806 5807 5808 5809 5810 5811 5811 5812 5814 5815 5816 5817 5818 5818 5819 5819 5820 5820 5820 5820 5820 5820 5821 5821 5822 5823 5823 5824 5824 5824 5824 5824 5823 5823 5823 5822
5786 5787 5789 5791 5790 5791 5793 5793 5795 5796 5797 5799 5799 5801 5801 5802 5803 5805 5806 5807 5808 5809 5809 5810 5810 5811 5811 5811 5811 5811 5811 5812 5813 5813 5814 5814 5814 5815 5814 5814 5814 5813 5813 5812
5775 5775 5777 5778 5779 5781 5783 5784 5784 5785 5786 5788 5789 5790 5791 5792 5793 5794 5796 5797 5798 5799 5799 5800 5801 5801 5801 5801 5801 5801 5801 5802 5803 5803 5804 5804 5804 5804 5804 5804 5803 5803 5803 5802
5764 5765 5768 5766 5768 5770 5770 5771 5773 5774 5775 5777 5777 5778 5780 5781 5783 5784 5785 5786 5787 5788 5789 5790 5790 5790 5791 5791 5791 5791 5792 5792 5793 5793 5793 5793 5793 5793 5793 5793 5793 5793 5792 5790
5754 5755 5754 5755 5756 5757 5758 5760 5761 5763 5764 5765 5767 5768 5769 5770 5772 5774 5775 5776 5777 5778 5779 5779 5779 5780 5780 5780 5780 5780 5781 5781 5782 5782 5782 5782 5783 5782 5782 5782 5781 5781 5780 5779
5741 5742 5742 5743 5744 5745 5746 5748 5750 5751 5753 5754 5755 5757 5758 5760 5761 5763 5764 5765 5766 5767 5768 5768 5769 5768 5769 5769 5769 5769 5769 5770 5770 5771 5771 5771 5771 5771 5771 5771 5770 5770 5769 5768
5729 5730 5730 5731 5732 5734 5735 5736 5738 5740 5741 5742 5744 5746 5747 5749 5750 5752 5753 5754 5755 5756 5756 5757 5757 5757 5758 5758 5757 5758 5758 5759 5759 5759 5759 5760 5760 5760 5759 5759 5759 5758 5756 5755
5717 5718 5719 5720 5721 5722 5723 5725 5727 5728 5730 5731 5732 5734 5736 5738 5739 5740 5741 5742 5743 5744 5745 5746 5746 5746 5747 5746 5746 5747 5747 5747 5748 5748 5748 5748 5748 5748 5748 5747 5747 5746 5745 5744
5705 5706 5707 5708 5709 5710 5712 5713 5715 5717 5718 5720 5721 5723 5725 5726 5728 5729 5730 5731 5732 5732 5733 5734 5734 5735 5736 5735 5736 5735 5735 5736 5736 5736 5736 5736 5736 5736 5736 5735 5735 5734 5734 5733
5693 5694 5696 5697 5698 5699 5700 5702 5704 5706 5707 5709 5711 5712 5714 5715 5717 5718 5719 5720 5720 5721 5722 5722 5723 5724 5724 5724 5724 5724 5724 5724 5724 5724 5724 5724 5724 5724 5724 5723 5723 5722 5722 5721
5683 5684 5685 5686 5688 5689 5690 5692 5694 5695 5697 5699 5700 5702 5703 5705 5706 5707 5708 5709 5710 5710 5711 5712 5712 5713 5713 5713 5714 5714 5714 5713 5713 5713 5713 5712 5712 5712 5712 5711 5711 5711 5710 5710
5673 5674 5675 5676 5678 5680 5681 5682 5684 5685 5687 5689 5690 5692 5693 5694 5696 5697 5698 5699 5700 5701 5701 5701 5702 5702 5703 5703 5703 5704 5704 5703 5703 5702 5702 5702 5701 5701 5700 5700 5699 5699 5699 5698
5664 5665 5666 5667 5669 5670 5672 5673 5674 5676 5677 5679 5680 5682 5683 5685 5687 5688 5689 5690 5690 5691 5691 5692 5692 5692 5693 5693 5694 5694 5694 5694 5694 5693 5693 5692 5691 5690 5689 5689 5688 5688 5688 5687
5656 5656 5658 5659 5660 5661 5663 5664 5666 5667 5668 5670 5671 5673 5674 5676 5677 5679 5680 5680 5681 5682 5682 5683 5683 5684 5684 5684 5684 5685 5685 5685 5684 5684 5683 5682 5681 5680 5679 5679 5678 5677 5677 5676
5648 5649 5650 5650 5652 5653 5654 5656 5657 5659 5660 5662 5663 5664 5666 5667 5668 5670 5671 5672 5672 5673 5673 5674 5675 5675 5676 5676 5676 5676 5676 5675 5675 5674 5674 5673 5672 5671 5670 5669 5668 5667 5667 5666
5642 5642 5643 5644 5645 5646 5647 5648 5650 5651 5652 5654 5655 5656 5658 5659 5660 5661 5662 5663 5664 5664 5665 5666 5666 5667 5668 5667 5667 5667 5667 5666 5666 5665 5665 5664 5664 5663 5662 5661 5659 5658 5657 5657
5637 5637 5638 5638 5639 5640 5641 5642 5643 5644 5645 5646 5647 5649 5650 5651 5652 5653 5654 5655 5656 5656 5656 5657 5658 5659 5659 5658 5658 5658 5658 5658 5657 5657 5656 5655 5655 5654 5653 5652 5651 5649 5648 5647
5634 5633 5633 5634 5634 5635 5635 5635 5636 5637 5638 5639 5640 5641 5643 5644 5645 5645 5646 5647 5648 5648 5649 5650 5650 5651 5651 5650 5650 5650 5650 5649 5649 5648 5648 5647 5646 5645 5644 5643 5641 5640 5639 5638
5631 5630 5630 5630 5630 5630 5630 5630 5630 5631 5632 5633 5634 5635 5636 5637 5638 5638 5639 5640 5640 5641 5642 5642 5643 5643 5643 5643 5642 5642 5641 5641 5640 5639 5639 5638 5637 5636 5635 5634 5632 5631 5630 5629
5628 5627 5627 5626 5626 5625 5625 5625 5626 5626 5627 5628 5628 5629 5630 5630 5631 5632 5632 5633 5634 5634 5635 5635 5635 5635 5635 5635 5634 5633 5633 5632 5631 5630 5629 5628 5628 5627 5626 5625 5624 5623 5621 5620
5625 5624 5623 5622 5622 5621 5621 5621 5622 5622 5622 5623 5623 5624 5624 5624 5625 5626 5626 5626 5627 5627 5628 5628 5628 5628 5627 5626 5626 5625 5624 5624 5623 5622 5621 5620 5619 5618 5617 5616 5615 5614 5613 5611
5623 5622 5621 5620 5619 5619 5618 5618 5618 5618 5619 5619 5619 5619 5619 5619 5619 5620 5620 5620 5620 5621 5621 5621 5621 5620 5619 5619 5618 5617 5616 5615 5614 5613 5612 5611 5610 5609 5608 5607 5606 5605 5604 5603
5621 5620 5619 5618 5617 5616 5616 5615 5615 5615 5615 5615 5614 5614 5614 5613 5614 5614 5613 5613 5614 5614 5614 5613 5613 5612 5612 5611 5610 5609 5608 5607 5606 5605 5604 5603 5602 5601 5600 5599 5598 5597 5595 5594